sat.trackr.live / text

‹ back to catalog

STARLINK-3948

NORAD 52546 · 2022-051P

PAYLOAD ACTIVE UNKNOWN

§ Identity

Operator
Country
US
Launch date
2022-05-13
Launch site
AFWTR
Launch vehicle
Mass (kg)
RCS (m²)

Purposes: comms

External: N2YO · Heavens-Above · Gunter

§ Orbital elements

Epoch: 2026-09-19T18:23:23.972352Z

Period
93.85 min
Inclination
53.1605°
Eccentricity
0.0001422
Mean motion
15.34385173 rev/d
Perigee alt
461.8 km
Apogee alt
463.7 km
Semi-major
6,840.9 km
B*
6.8383e-5
RAAN
321.1827°
Arg perigee
109.9199°
Mean anomaly
250.1957°
Rev number
24,097

§ Raw data

STARLINK-39481 52546U 22051P   26262.76624968  .00001934  00000+0  68383-4 0  99962 52546  53.1605 321.1827 0001422 109.9199 250.1957 15.34385173240976

JSON: /api/v1/satellites/52546 · /tle

For live sub-satellite position, see the globe view (requires WebGL).

§ Visibility from observer

Set your observer location to see the next 7 days of passes ≥ 10°. The values pass through the URL so the page stays shareable.

No JS? Fill the form by hand. The geolocation button needs JavaScript.